STARLINK-1558, 46035

Orbit data source: Space-Track

STARLINK-1558, 46035 is a payload satellite owned by SpaceX/Seattle (US) in LEO that was launched on Fri, 07 Aug 2020 UTC via an FALCON 9 launch vehicle from the Air Force Eastern Test Range (AFETR). Payload-class satellites include a variety of spacecraft equipped with specific instruments for various scientific and technological missions. These include communications satellites like Starlink; space stations such as the ISS; scientific satellites like the Hubble; Earth observation satellites from companies like Planet Labs, Umbra, and HawkEye 360; GPS; miniature CubeSats for education and research; and military/defense satellites.

Loading next visibility...
Identifier
46035, 2020-055J
Orbit
LEO
Country
Flag of USUS
Related business
Manufacturer
SpaceX/Seattle
Mission
Operational Commercial Communications
Bus & Motor
STARLINK, Unknown motor
Mass
260 kg wet, ~248 kg dry
Launch date (UTC)
2020-08-07 (6 years ago)
Launch vehicle
FALCON 9
Launch site
Air Force Eastern Test Range (AFETR)
Object type
Payload
Rocket body
Debris
Shape & HBR
Box + 1 Pan, 10.1 m
Radar Cross Section
13.562 m², Large (>1 m²)

Expand to show TLE details & history
Last TLE update: 1 day ago

TLE from 1 day ago
0 STARLINK-1558
1 46035U 20055J   26169.99297630  .00002509  00000-0  96775-4 0  9993
2 46035  53.1608  16.1643 0000958  91.7486 268.3624 15.30203888324403
Epoch: 2026-06-18T23:49Z
TLE epoch observation values (Epoch: 2026-06-18T23:49:53.152Z)
Latitude
-0.00005°
Longitude
111.46445°
Altitude
476.122 km
Speed
7.629 km/s
True Right ascension
01h 04m 39s
True Declination
0° 00' 00"
Sunlit
Object was in daylight at epoch
Visualization orbit readout
Latitude
Unknown
Longitude
Unknown
Altitude
Unknown
Speed
Unknown
Apparent Right ascension
Unknown
Apparent Declination
Unknown
Sunlit
N/A
Visualization observer readout
Local Sidereal Time
10:36:05
Azimuth
Unknown
Elevation
Unknown
Doppler factor
Unknown
Orbital elements
Apogee altitude
476.116 km
Perigee altitude
474.803 km
Semi-major axis
6,853.597 km
Eccentricity
0.0001
Inclination
53.1608°
RAAN
16.1643°
Arg. of periapsis
91.7486°
True anomaly
268.35143°
Mean anomaly
268.3624°
Eccentric anomaly
268.35691°
Mean motion
3.8253 °/min
Orbital period
94.11 mins
BSTAR
0.000096775
Loading maneuver chart data...
Computing Atmospheric mass density...
Loading historical data...
Loading historical data...
Loading historical data...
Loading historical data...
Loading historical data...
Loading historical data...
Loading historical data...

Documentation

Showing up to 5 results
|